Location: Rotheul
(50.2849°N, 11.2349°E)
Time: 23:28:01
(UTC+02:00)

ISS - Pass Details

Date: 21 July 2018
Orbit: 402 x 408 km, 51.6° (Epoch: 16 July)

Event Time Altitude Azimuth Distance (km) Brightness Sun altitude
Rises 02:58:04 0° 286° (WNW) 2,330 0.0 -16.1°
Reaches altitude 10° 03:00:09 10° 284° (WNW) 1,468 -1.1 -15.9°
Maximum altitude 03:03:25 68° 202° (SSW) 441 -4.0 -15.7°
Drops below altitude 10° 03:06:41 10° 118° (ESE) 1,465 -1.0 -15.5°
Sets 03:08:46 0° 116° (ESE) 2,324 0.0 -15.3°
